SXM-10

Last updated on Fri Jul 10 2026 00:03:07 GMT+0000 (Coordinated Universal Time)

1 64290U 25122A 26189.69474726 -.00000002 00000+0 00000+0 0 9995 2 64290 0.0171 37.1150 0001554 323.9440 59.5407 1.00270902 3890
UTC large
Height (km)
Speed (km/s)
/
Latitude / Longitude
Inclination (degrees)
Orbital Period (minutes)
Azimuth
Elevation
Range (km)
Doppler Factor

Next 0 passes for location: London (51.5072 / 0.1276)

No passes found over London.
SXM-10